User: anonymous   Login
Location: Nairn
(57.5833°N, 3.8667°W)
Time: 16:16:54
(UTC+00:00)
Language:

Meteor 1-11 Rocket - Orbit

View from above orbital plane
View from above orbital plane
View from above satellite
View from above satellite

Ground track
Ground track

The orbit data is extracted from the following two-line orbital elements,

1  5918U 72022B   20292.94176850 +.00000045 +00000-0 +19397-4 0  9993
2  5918 081.2393 225.8921 0059144 138.7721 221.7937 14.05874046489115
Epoch (UTC): 18 October 2020 22:36:08
Eccentricity: 0.0059144
inclination: 81.2393°
perigee height: 830 km
apogee height: 916 km
right ascension of ascending node: 225.8921°
argument of perigee: 138.7721°
revolutions per day: 14.05874046
mean anomaly at epoch: 221.7937°
orbit number at epoch: 48911

The dashed part of the orbit path shows where the satellite is in the earth's shadow,  

DLR